Location: Sevilla
(37.3933°N, 5.9839°W)
Time: 06:16:36
(UTC+02:00)

Transit 2A - Pass Details

Date: 02 July 2024
Orbit: 591 x 960 km, 66.7° (Epoch: 15 July)

Event Time Altitude Azimuth Distance (km) Brightness Sun altitude
Rises 23:35:15 0° 336° (NNW) 3,583 10.9 -17.2°
Reaches altitude 10° 23:37:50 10° 341° (NNW) 2,664 9.9 -17.6°
Maximum altitude 23:44:00 55° 58° (ENE) 1,139 6.8 -18.4°
Enters shadow 23:47:05 30° 123° (ESE) 1,659 7.2 -18.7°
Drops below altitude 10° 23:50:11 10° 136° (SE) 2,668 - -19.1°
Sets 23:52:46 0° 140° (SE) 3,587 - -19.4°
